This is the latest recevied weather packets stored in our database for station/object N5COP-13. If no packets are shown the sender has not sent any weather packets the latest 10 day(s).
| Time | Temp. | Humidity | Pressure | Rain* | Wind** | Luminosity | Snow |
|---|---|---|---|---|---|---|---|
| 1777677609 | 11.67° C | 74% | 1020.3 hPa | 0 mm | - | 341 W/m² | - |
| 1777677306 | 11.67° C | 76% | 1020.3 hPa | 0 mm | - | 292 W/m² | - |
| 1777677005 | 11.11° C | 77% | 1020.3 hPa | 0 mm | - | 234 W/m² | - |
| 1777676703 | 10.56° C | 78% | 1020.2 hPa | 0 mm | - | 200 W/m² | - |
| 1777676400 | 10.56° C | 79% | 1020.2 hPa | 0 mm | - | 188 W/m² | - |
| 1777676098 | 10.56° C | 80% | 1020.4 hPa | 0 mm | - | 251 W/m² | - |
| 1777675793 | 10.56° C | 81% | 1020.3 hPa | 0 mm | - | 227 W/m² | - |
| 1777675491 | 10.56° C | 82% | 1020.6 hPa | 0 mm | - | 242 W/m² | - |
| 1777675188 | 10.56° C | 82% | 1020.6 hPa | 0 mm | - | 255 W/m² | - |
| 1777674884 | 10.56° C | 83% | 1020.4 hPa | 0 mm | - | 265 W/m² | - |
| 1777674580 | 10° C | 83% | 1020.4 hPa | 0 mm | - | 245 W/m² | - |
| 1777674278 | 10° C | 83% | 1020.6 hPa | 0 mm | - | 208 W/m² | - |
| 1777673974 | 10° C | 83% | 1020.4 hPa | 0 mm | - | 217 W/m² | - |
| 1777673671 | 10° C | 82% | 1020.4 hPa | 0 mm | - | 191 W/m² | - |
| 1777673368 | 10° C | 82% | 1020.6 hPa | 0 mm | - | 177 W/m² | - |
| 1777673066 | 10° C | 82% | 1020.6 hPa | 0 mm | - | 180 W/m² | - |
| 1777672761 | 10° C | 81% | 1020.4 hPa | 0 mm | - | 163 W/m² | - |
| 1777672459 | 10° C | 79% | 1020.4 hPa | 0.51 mm | - | 124 W/m² | - |
| 1777672154 | 10° C | 78% | 1020.6 hPa | 0.51 mm | - | 128 W/m² | - |
| 1777671849 | 10.56° C | 76% | 1020.4 hPa | 0.51 mm | - | 131 W/m² | - |
| 1777671545 | 10.56° C | 73% | 1020.3 hPa | 0.51 mm | - | 125 W/m² | - |
| 1777671242 | 10.56° C | 70% | 1020.8 hPa | 0 mm | - | 114 W/m² | - |
| 1777670937 | 11.11° C | 67% | 1020.6 hPa | 0 mm | - | 105 W/m² | - |
| 1777670635 | 11.67° C | 65% | 1020.7 hPa | 0 mm | - | 105 W/m² | - |
| 1777670331 | 11.67° C | 65% | 1020.7 hPa | 0 mm | - | 127 W/m² | - |
* Rain latest hour (hover to see other rain measurements)
** Current wind speed in m/s (hover to see current wind gust speed)